Weather History for Sault Ste Marie, MI

Change the Weather History Date:

Sunday, September 22, 2013

  Actual Average Record
Temperature  
Mean Temperature 46 °F 55 °F  
Max Temperature 54 °F 64 °F 85 °F (1920)
Min Temperature 38 °F 46 °F 28 °F (1974)
Degree Days  
Heating Degree Days 19 10  
Month to date heating degree days 182 157  
Since 1 July heating degree days 298 304  
Cooling Degree Days 0 0  
Month to date cooling degree days 14 15  
Year to date cooling degree days 266 193  
Moisture  
Dew Point 36 °F    
Average Humidity 73    
Maximum Humidity 92    
Minimum Humidity 54    
Precipitation  
Precipitation 0.00 in 0.14 in 1.11 in (1909)
Month to date precipitation 6.59 2.77  
Year to date precipitation 34.88 21.94  
Sea Level Pressure  
Sea Level Pressure 30.04 in    
Wind  
Wind Speed 5 mph (NNW)    
Max Wind Speed 12 mph    
Max Gust Speed 16 mph    
Visibility 10 miles    
Events      
T = Trace of Precipitation, MM = Missing Value Source: NWS Daily Summary

Daily Weather History Graph

Daily Weather History Graph

Search for Another Location

Airport:

Trip Planner

Search our weather history database for the weather conditions in past years. The results will help you decide how hot, cold, wet, or windy it might be!

Date:

Astronomy

Sep. 22, 2013 Rise Set
Actual Time 7:24 AM EDT 7:34 PM EDT
Civil Twilight 6:54 AM EDT 8:04 PM EDT
Nautical Twilight 6:19 AM EDT 8:39 PM EDT
Astronomical Twilight 5:42 AM EDT 9:16 PM EDT
Moon 9:09 PM EDT (9/22) 10:57 AM EDT (9/22)
Length of Visible Light 13h 10m
Length of Day
12h 09m
Waning Gibbous, 89% of the Moon is Illuminated
Sep 22
Waning Gibbous
Sep 26
Last Quarter
Oct 4
New
Oct 11
First Quarter
Oct 18
Full

Hourly Weather History & Observations

Time (EDT) Temp. Windchill Dew Point Humidity Pressure Visibility Wind Dir Wind Speed Gust Speed Precip Events Conditions
12:55 AM 42.1 °F 36.6 °F 35.1 °F 76% 29.91 in 10.0 mi North 9.2 mph - N/A   Clear
1:55 AM 41.0 °F 37.1 °F 34.0 °F 76% 29.93 in 10.0 mi North 5.8 mph - N/A   Clear
2:55 AM 39.9 °F 35.8 °F 34.0 °F 79% 29.95 in 10.0 mi North 5.8 mph - N/A   Clear
3:55 AM 39.9 °F 35.1 °F 33.1 °F 77% 29.96 in 10.0 mi North 6.9 mph - N/A   Clear
4:55 AM 39.0 °F 35.7 °F 33.1 °F 79% 29.97 in 10.0 mi North 4.6 mph - N/A   Clear
5:55 AM 39.0 °F 34.0 °F 34.0 °F 82% 29.98 in 10.0 mi NNW 6.9 mph - N/A   Clear
6:55 AM 39.0 °F 34.8 °F 34.0 °F 82% 30.00 in 10.0 mi North 5.8 mph - N/A   Partly Cloudy
7:55 AM 39.0 °F 36.8 °F 34.0 °F 82% 30.02 in 10.0 mi North 3.5 mph - N/A   Clear
8:55 AM 42.1 °F 38.4 °F 35.1 °F 76% 30.03 in 10.0 mi NNE 5.8 mph - N/A   Clear
9:55 AM 43.0 °F - 36.0 °F 76% 30.05 in 10.0 mi Calm Calm - N/A   Mostly Cloudy
10:55 AM 46.0 °F 44.8 °F 37.9 °F 73% 30.07 in 10.0 mi Variable 3.5 mph - N/A   Overcast
11:55 AM 50.0 °F - 37.0 °F 61% 30.07 in 10.0 mi North 5.8 mph - N/A   Partly Cloudy
12:55 PM 50.0 °F - 36.0 °F 59% 30.06 in 10.0 mi Variable 3.5 mph - N/A   Overcast
1:55 PM 51.1 °F - 36.0 °F 56% 30.06 in 10.0 mi West 5.8 mph - N/A   Overcast
2:55 PM 52.0 °F - 36.0 °F 54% 30.05 in 10.0 mi WNW 3.5 mph - N/A   Mostly Cloudy
3:55 PM 53.1 °F - 37.9 °F 57% 30.05 in 10.0 mi WNW 6.9 mph - N/A   Overcast
4:55 PM 52.0 °F - 39.0 °F 61% 30.06 in 10.0 mi NW 9.2 mph - N/A   Overcast
5:55 PM 52.0 °F - 37.0 °F 57% 30.06 in 10.0 mi NW 9.2 mph - N/A   Scattered Clouds
6:55 PM 50.0 °F - 36.0 °F 59% 30.06 in 10.0 mi NW 9.2 mph - N/A   Clear
7:55 PM 46.9 °F - 37.0 °F 68% 30.08 in 10.0 mi NW 5.8 mph - N/A   Clear
8:55 PM 46.0 °F 43.9 °F 37.9 °F 73% 30.09 in 10.0 mi NW 4.6 mph - N/A   Clear
9:55 PM 46.0 °F 43.1 °F 39.0 °F 76% 30.10 in 10.0 mi WNW 5.8 mph - N/A   Clear
10:55 PM 42.1 °F - 39.0 °F 89% 30.11 in 10.0 mi Calm Calm - N/A   Clear
11:55 PM 39.9 °F - 37.0 °F 89% 30.11 in 10.0 mi Calm Calm - N/A   Clear